Total_Precipitation_Accumulation
2.22 2.31 3.40 3.39 3.15 3.04 2.89 2.87 2.84 2.86 2.87 2.77 2.55 2.47 2.45 2.43 2.38 2.36 2.16 2.06 2.11 2.28 2.32 2.44 2.50 2.42 2.51 2.54 2.49 2.43 2.46 2.54 2.55 2.35 2.26 2.29 2.44 2.67 2.77 2.79 2.67 2.56 2.87
1.76 2.19 3.28 3.26 3.11 2.95 2.79 2.80 2.72 2.62 2.52 2.41 2.38 2.36 2.42 2.38 2.31 2.14 2.06 2.10 2.14 2.22 2.20 2.29 2.36 2.37 2.41 2.47 2.54 2.61 2.59 2.52 2.48 2.37 2.49 2.51 2.66 2.75 2.73 2.66 2.72 2.74 2.86
1.55 1.82 2.46 3.21 3.10 2.87 2.79 2.83 2.75 2.57 2.31 2.16 2.15 2.19 2.22 2.21 2.19 2.15 2.17 2.15 2.21 2.12 2.00 2.18 2.47 2.48 2.44 2.44 2.48 2.53 2.55 2.51 2.45 2.59 3.09 3.39 3.10 2.94 2.65 2.65 2.71 2.61 2.62
1.40 1.59 1.92 2.86 2.86 2.83 2.82 2.63 2.58 2.32 2.06 1.94 1.94 1.96 2.00 2.10 2.31 2.40 2.37 2.33 2.32 2.09 1.90 1.94 2.35 2.47 2.44 2.32 2.15 2.18 2.32 2.45 2.64 2.89 3.20 3.65 3.55 3.30 2.96 2.78 2.75 2.64 2.54
1.41 1.65 2.34 2.97 2.78 2.77 2.65 2.44 2.42 2.28 2.05 1.94 1.92 1.92 2.03 2.28 2.43 2.45 2.48 2.42 2.30 2.11 2.00 2.09 2.45 2.36 2.34 2.24 2.09 2.11 2.22 2.45 2.77 2.58 2.79 3.24 3.73 3.83 3.19 2.86 2.84 2.84 2.83
1.44 1.65 2.34 2.74 2.51 2.46 2.43 2.36 2.25 2.27 2.27 2.06 1.88 1.94 2.18 2.58 2.62 2.64 2.66 2.39 2.30 2.17 2.19 2.28 2.45 2.43 2.36 2.32 2.24 2.11 2.19 2.49 2.39 2.31 2.69 3.08 3.43 3.60 3.07 2.85 2.87 2.98 3.05
1.25 1.39 1.89 2.41 2.25 2.20 2.23 2.24 2.14 2.18 2.27 2.16 1.94 2.07 2.36 2.73 2.80 2.72 2.55 2.32 2.31 2.28 2.33 2.52 2.56 2.58 2.48 2.33 2.35 2.24 2.19 2.26 2.01 2.25 2.71 3.12 3.20 3.14 2.99 2.84 2.77 3.01 3.26
1.27 1.22 1.44 1.95 2.08 1.97 2.02 2.18 2.11 2.10 2.18 2.10 2.01 2.06 2.24 2.67 2.69 2.64 2.52 2.35 2.25 2.32 2.54 2.85 2.77 2.63 2.42 2.33 2.39 2.45 2.39 2.07 1.70 1.83 2.20 2.93 3.49 3.30 2.98 2.79 2.78 2.91 3.14
1.55 1.41 1.29 1.37 1.58 1.76 1.91 2.07 2.09 2.06 2.01 1.90 1.99 2.04 2.36 2.82 2.58 2.42 2.44 2.39 2.33 2.40 2.49 2.68 2.58 2.45 2.41 2.41 2.39 2.44 2.47 2.27 1.88 1.81 1.81 2.65 3.45 3.44 3.02 2.79 2.72 2.85 2.96
1.63 1.49 1.27 1.17 1.22 1.44 1.56 1.75 2.01 2.08 1.98 1.85 1.91 2.08 2.36 2.81 2.57 2.35 2.25 2.44 2.55 2.50 2.60 2.74 2.58 2.41 2.43 2.34 2.30 2.46 2.47 2.15 1.80 1.66 1.94 2.64 3.56 3.70 3.37 2.80 2.57 2.58 2.63
1.42 1.31 1.20 1.14 1.19 1.32 1.42 1.51 1.89 1.93 1.82 1.63 1.63 1.92 2.05 2.29 2.25 2.25 2.33 2.68 2.70 2.70 2.77 2.86 2.82 2.59 2.32 2.21 2.30 2.36 2.18 1.87 1.87 1.81 2.26 3.08 3.58 3.65 3.48 3.07 2.58 2.30 2.24
1.14 1.02 0.98 0.97 1.06 1.18 1.23 1.62 1.95 1.73 1.65 1.44 1.47 1.55 1.72 2.09 2.37 2.10 2.34 2.80 2.76 2.70 2.65 2.78 2.79 2.42 1.91 1.61 1.87 1.92 1.76 1.89 2.02 1.88 2.49 3.31 3.67 3.67 3.31 3.13 2.66 2.34 2.19
0.90 0.82 0.77 0.71 0.71 0.80 1.05 1.41 1.73 1.87 1.88 1.88 1.71 1.61 1.70 1.63 1.76 1.67 1.63 1.82 1.90 1.96 1.91 2.05 2.20 1.93 1.63 1.56 1.58 1.60 1.77 1.84 2.19 2.18 2.67 3.32 3.65 3.76 3.44 3.26 2.85 2.52 2.41
0.84 0.80 0.71 0.67 0.62 0.65 0.74 0.94 1.17 1.36 1.48 1.58 1.50 1.37 1.51 1.50 1.53 1.56 1.48 1.39 1.36 1.44 1.57 1.59 1.75 1.75 1.53 1.43 1.43 1.56 1.66 1.70 1.97 2.41 2.90 3.07 3.42 3.75 3.61 3.37 3.04 2.80 2.66
0.97 0.94 0.84 0.72 0.68 0.68 0.74 0.80 0.88 1.07 1.20 1.25 1.34 1.30 1.33 1.47 1.52 1.48 1.35 1.29 1.17 1.24 1.38 1.49 1.52 1.57 1.60 1.53 1.40 1.54 1.65 1.79 1.93 2.09 2.46 2.72 3.01 3.60 3.95 3.81 3.42 3.11 3.00
1.09 1.01 0.96 0.84 0.81 0.77 0.76 0.79 0.86 0.95 1.00 1.04 1.05 1.06 1.18 1.37 1.41 1.43 1.40 1.40 1.32 1.32 1.41 1.42 1.36 1.49 1.67 1.60 1.44 1.43 1.51 1.66 1.84 1.88 2.04 2.31 2.63 3.05 3.84 4.21 4.03 3.71 3.65
1.05 0.98 0.97 0.95 0.96 0.94 0.91 0.83 0.83 0.93 1.01 1.02 0.99 0.92 0.96 1.11 1.21 1.31 1.33 1.30 1.33 1.44 1.49 1.54 1.36 1.41 1.46 1.46 1.47 1.44 1.39 1.48 1.58 1.67 1.62 1.72 1.94 2.38 3.11 3.83 4.26 4.20 4.12
0.86 0.85 0.92 0.91 0.94 0.98 0.98 0.97 0.98 1.00 1.09 1.04 1.02 0.95 0.91 0.98 1.11 1.28 1.30 1.26 1.26 1.44 1.58 1.67 1.57 1.56 1.54 1.53 1.55 1.53 1.43 1.48 1.41 1.49 1.53 1.49 1.72 1.76 2.24 2.94 3.52 3.75 4.00
0.78 0.79 0.80 0.85 0.83 0.90 0.96 0.99 1.10 1.14 1.17 1.13 1.10 1.02 1.00 1.07 1.19 1.38 1.50 1.49 1.44 1.48 1.54 1.54 1.63 1.67 1.66 1.67 1.58 1.56 1.54 1.50 1.53 1.43 1.51 1.54 1.50 1.63 1.86 2.18 2.68 3.06 3.38
0.76 0.76 0.75 0.79 0.80 0.83 0.95 1.05 1.23 1.36 1.35 1.34 1.24 1.16 1.20 1.35 1.51 1.66 1.67 1.76 1.78 1.71 1.72 1.69 1.76 1.74 1.67 1.74 1.60 1.49 1.49 1.43 1.57 1.67 1.64 1.68 1.59 1.55 1.92 2.16 2.24 2.30 2.77
0.71 0.73 0.74 0.72 0.78 0.82 0.86 0.99 1.23 1.50 1.61 1.71 1.62 1.40 1.34 1.48 1.78 2.04 1.99 2.07 2.14 2.09 2.07 2.05 2.29 2.24 1.98 1.79 1.89 1.75 1.59 1.48 1.67 1.75 1.74 1.89 1.89 1.96 2.18 2.21 2.07 1.99 2.01
0.59 0.65 0.70 0.69 0.76 0.79 0.83 1.01 1.19 1.34 1.36 1.51 1.62 1.56 1.48 1.46 1.65 1.82 2.10 2.25 2.22 2.38 2.49 2.46 2.82 2.97 2.47 2.03 2.17 2.45 2.19 2.01 1.83 1.69 1.76 1.88 2.06 2.24 2.31 2.17 2.01 1.83 1.77
0.50 0.51 0.55 0.59 0.67 0.79 0.90 1.11 1.34 1.57 1.65 1.66 1.55 1.62 1.63 1.53 1.60 1.74 1.89 2.05 2.09 2.26 2.45 2.58 2.90 3.44 3.21 2.54 2.35 2.81 2.61 2.43 2.29 1.96 1.77 1.79 1.93 2.22 2.46 2.40 2.15 1.91 1.71
0.48 0.50 0.53 0.62 0.76 0.95 1.13 1.34 1.57 1.76 1.81 1.68 1.66 1.69 1.58 1.49 1.47 1.60 1.74 1.85 1.98 2.04 2.24 2.34 2.48 3.07 3.48 3.15 2.85 2.54 2.24 2.22 2.42 2.42 2.04 1.84 1.84 2.00 2.24 2.23 2.10 2.04 1.87
0.58 0.65 0.70 0.84 1.06 1.31 1.50 1.75 2.03 1.99 1.87 1.77 1.71 1.67 1.62 1.60 1.56 1.56 1.73 1.79 1.81 1.89 2.04 2.38 2.66 2.97 3.23 3.26 3.25 3.03 2.71 2.42 2.08 2.38 2.47 2.14 1.98 1.93 2.01 2.09 1.99 1.96 1.94
0.87 1.05 1.26 1.47 1.61 1.70 1.81 1.94 2.05 2.01 2.01 1.94 1.74 1.64 1.61 1.66 1.72 1.72 1.76 1.79 1.76 1.81 1.93 2.19 2.51 2.75 3.08 3.33 3.30 3.11 2.97 2.84 2.57 2.50 2.41 2.26 2.27 2.11 1.97 1.94 1.83 1.82 1.93